Date String (YYYY-MM-DD hh:mm:ss) UTC,Instrument flags,Ambient pressure (hPa),Sample flow (lpm),Bypass flow (lpm),Sample temperature (°C),Ambient temperature (°C),ASC tube jacket temperature (°C),LED temperature (°C),Box temperature (°C),Sample RH (%),Span deviation,Mass concentration (μg/m³),Mass concentration (μg/m³),Mass concentration (μg/m³)
DateTimeUTC,F1_M11,P_M11,Q1_M11,Q2_M11,T1_M11,T2_M11,T3_M11,T4_M11,T5_M11,U1_M11,ZSPAN_M11,X2_M11,X0_M11,X1_M11
2022-09-08 01:00:00,,0829.5,4.99,0.00,29.4,26.4,00.0,38.1,31.2,17.1,0002.5,0015.38,0030.03,0013.56
2022-09-08 01:01:00,,0829.4,5.00,0.00,29.4,26.7,00.0,38.0,31.2,17.1,0002.2,0015.37,0030.96,0013.57
2022-09-08 01:02:00,,0829.5,4.99,0.00,29.4,27.0,00.0,38.0,31.0,17.1,0002.3,0015.40,0030.39,0013.58
2022-09-08 01:03:00,,0829.5,5.00,0.00,29.3,27.3,00.0,38.0,31.1,17.1,0002.6,0015.38,0031.86,0013.59
2022-09-08 01:04:00,,0829.4,5.00,0.00,29.4,27.6,00.0,38.0,31.2,17.1,0002.6,0015.36,0033.03,0013.59
2022-09-08 01:05:00,,0829.4,5.00,0.00,29.4,27.9,00.0,38.0,31.2,17.0,0002.8,0015.38,0034.07,0013.58
2022-09-08 01:06:00,,0829.4,5.01,0.00,29.4,28.1,00.0,38.0,31.3,17.0,0002.8,0015.44,0033.27,0013.59
2022-09-08 01:07:00,,0829.3,4.98,0.00,29.5,28.2,00.0,38.1,31.4,17.0,0002.5,0015.45,0033.43,0013.58
2022-09-08 01:08:00,,0829.3,5.00,0.00,29.5,27.3,00.0,38.1,31.4,17.0,0002.4,0015.46,0031.98,0013.55
2022-09-08 01:09:00,,0829.3,5.01,0.00,29.4,26.4,00.0,38.1,31.2,17.1,0002.2,0015.41,0031.89,0013.52
2022-09-08 01:10:00,,0829.3,4.99,0.00,29.4,26.5,00.0,38.0,31.2,17.1,0002.3,0015.40,0033.38,0013.49
2022-09-08 01:11:00,,0829.4,5.01,0.00,29.4,26.8,00.0,38.0,31.1,17.1,0002.2,0015.39,0034.74,0013.46
2022-09-08 01:12:00,,0829.3,4.99,0.00,29.3,27.1,00.0,38.0,31.1,17.2,0002.1,0015.36,0034.38,0013.41
2022-09-08 01:13:00,,0829.3,5.01,0.00,29.3,27.4,00.0,38.0,31.1,17.2,0001.9,0015.33,0034.35,0013.38
2022-09-08 01:14:00,,0829.3,5.01,0.00,29.4,27.7,00.0,38.0,31.2,17.1,0001.3,0015.31,0033.43,0013.35
2022-09-08 01:15:00,,0829.3,5.00,0.00,29.4,28.0,00.0,38.0,31.3,17.1,0001.2,0015.31,0031.77,0013.32
2022-09-08 01:16:00,,0829.3,5.00,0.00,29.5,28.2,00.0,38.0,31.4,17.0,0001.3,0015.30,0030.55,0013.28
2022-09-08 01:17:00,,0829.3,4.99,0.00,29.5,28.4,00.0,38.1,31.5,17.0,0001.4,0015.26,0031.59,0013.23
2022-09-08 01:18:00,,0829.3,5.01,0.00,29.5,27.6,00.0,38.1,31.4,16.9,0001.4,0015.23,0031.62,0013.20
2022-09-08 01:19:00,,0829.4,5.00,0.00,29.5,26.4,00.0,38.1,31.3,17.0,0001.7,0015.19,0031.85,0013.21
2022-09-08 01:20:00,,0829.3,5.00,0.00,29.4,26.5,00.0,38.1,31.2,17.0,0002.1,0015.19,0031.92,0013.21
2022-09-08 01:21:00,,0829.4,5.01,0.00,29.4,26.7,00.0,38.0,31.1,17.1,0001.9,0015.20,0031.34,0013.22
2022-09-08 01:22:00,,0829.4,4.99,0.00,29.4,27.1,00.0,38.0,31.1,17.1,0002.2,0015.21,0029.67,0013.22
2022-09-08 01:23:00,,0829.3,5.01,0.00,29.4,27.4,00.0,38.0,31.1,17.1,0002.5,0015.20,0029.42,0013.23
2022-09-08 01:24:00,,0829.3,5.01,0.00,29.4,27.7,00.0,38.0,31.2,17.1,0002.5,0015.19,0029.93,0013.24
2022-09-08 01:25:00,,0829.3,4.99,0.00,29.4,28.0,00.0,38.0,31.3,17.0,0002.8,0015.20,0029.20,0013.24
2022-09-08 01:26:00,,0829.3,5.00,0.00,29.5,28.2,00.0,38.1,31.4,16.9,0002.8,0015.23,0030.40,0013.27
2022-09-08 01:27:00,,0829.3,5.01,0.00,29.5,28.4,00.0,38.1,31.4,17.0,0002.2,0015.17,0031.02,0013.28
2022-09-08 01:28:00,,0829.4,4.98,0.00,29.5,27.7,00.0,38.1,31.4,17.0,0001.7,0015.18,0030.51,0013.29
2022-09-08 01:29:00,,0829.3,5.00,0.00,29.5,26.5,00.0,38.1,31.2,17.3,0002.1,0015.17,0030.75,0013.30
2022-09-08 01:30:00,,0829.3,5.00,0.00,29.4,26.4,00.0,38.1,31.2,17.4,0001.8,0015.21,0031.30,0013.34
2022-09-08 01:31:00,,0829.3,5.00,0.00,29.4,26.6,00.0,38.0,31.0,17.3,0001.5,0015.36,0031.69,0013.36
2022-09-08 01:32:00,,0829.3,5.00,0.00,29.3,26.9,00.0,38.0,31.0,17.3,0002.0,0015.38,0030.98,0013.40
2022-09-08 01:33:00,,0829.3,4.99,0.00,29.3,27.3,00.0,38.0,31.1,17.2,0001.5,0015.46,0031.52,0013.44
2022-09-08 01:34:00,,0829.3,5.00,0.00,29.3,27.6,00.0,38.0,31.1,17.2,0001.3,0015.51,0032.62,0013.48
2022-09-08 01:35:00,,0829.4,5.01,0.00,29.4,27.8,00.0,38.0,31.2,17.1,0001.3,0015.52,0033.02,0013.51
2022-09-08 01:36:00,,0829.4,4.99,0.00,29.4,28.1,00.0,38.0,31.3,17.0,0002.1,0015.49,0034.63,0013.52
2022-09-08 01:37:00,,0829.5,5.00,0.00,29.5,28.3,00.0,38.1,31.4,19.4,0002.4,0015.50,0033.24,0013.53
2022-09-08 01:38:00,,0829.5,4.98,0.00,29.5,27.8,00.0,38.1,31.5,20.5,0003.0,0015.54,0032.73,0013.55
2022-09-08 01:39:00,,0829.4,5.00,0.00,29.5,26.5,00.0,38.1,31.2,19.6,0003.5,0015.50,0032.96,0013.56
2022-09-08 01:40:00,,0829.4,5.00,0.00,29.4,26.2,00.0,38.0,31.2,19.7,0003.3,0015.53,0032.43,0013.55
2022-09-08 01:41:00,,0829.5,5.01,0.00,29.4,26.5,00.0,38.0,31.1,19.2,0003.1,0015.57,0033.54,0013.53
2022-09-08 01:42:00,,0829.6,5.00,0.00,29.3,26.8,00.0,38.0,31.0,19.3,0003.5,0015.48,0034.40,0013.50
2022-09-08 01:43:00,,0829.5,5.00,0.00,29.3,27.2,00.0,38.0,31.0,19.0,0002.9,0015.44,0035.01,0013.46
2022-09-08 01:44:00,,0829.5,5.00,0.00,29.3,27.5,00.0,38.0,31.1,18.9,0003.5,0015.43,0036.41,0013.43
2022-09-08 01:45:00,,0829.5,5.01,0.00,29.4,27.8,00.0,38.0,31.3,19.1,0003.4,0015.44,0036.37,0013.41
2022-09-08 01:46:00,,0829.5,4.98,0.00,29.4,28.0,00.0,38.0,31.3,19.2,0003.2,0015.48,0035.75,0013.38
2022-09-08 01:47:00,,0829.5,5.02,0.00,29.4,28.3,00.0,38.0,31.4,19.1,0002.6,0015.51,0034.45,0013.37
2022-09-08 01:48:00,,0829.5,4.99,0.00,29.5,28.4,00.0,38.1,31.5,18.9,0002.3,0015.58,0035.99,0013.35
2022-09-08 01:49:00,,0829.5,5.01,0.00,29.5,28.2,00.0,38.1,31.5,18.9,0001.8,0015.61,0037.19,0013.32
2022-09-08 01:50:00,,0829.4,4.99,0.00,29.5,26.8,00.0,38.1,31.3,18.9,0001.7,0015.59,0036.27,0013.32
2022-09-08 01:51:00,,0829.3,5.01,0.00,29.5,26.3,00.0,38.1,31.2,18.9,0001.8,0015.61,0036.31,0013.34
2022-09-08 01:52:00,,0829.3,5.00,0.00,29.4,26.6,00.0,38.0,31.2,18.7,0001.9,0015.64,0034.45,0013.33
2022-09-08 01:53:00,,0829.4,4.99,0.00,29.4,26.8,00.0,38.0,31.1,18.8,0001.8,0015.62,0032.31,0013.32
2022-09-08 01:54:00,,0829.5,5.00,0.00,29.3,27.2,00.0,38.0,31.1,18.6,0001.8,0015.64,0032.33,0013.33
2022-09-08 01:55:00,,0829.4,5.02,0.00,29.4,27.5,00.0,38.0,31.2,18.5,0001.9,0015.59,0031.27,0013.32
2022-09-08 01:56:00,,0829.3,5.00,0.00,29.4,27.8,00.0,38.0,31.3,18.6,0001.6,0015.60,0031.82,0013.32
2022-09-08 01:57:00,,0829.2,4.98,0.00,29.4,28.0,00.0,38.1,31.3,17.8,0001.8,0015.60,0031.38,0013.32
2022-09-08 01:58:00,,0829.3,5.01,0.00,29.5,28.3,00.0,38.1,31.4,17.2,0002.4,0015.59,0030.97,0013.35
2022-09-08 01:59:00,,0829.3,4.98,0.00,29.5,28.4,00.0,38.1,31.5,17.2,0002.3,0015.59,0029.75,0013.40
